sat.trackr.live / text

‹ back to catalog

ONEWEB-0179

NORAD 48212 · 2021-031C

PAYLOAD ACTIVE UNKNOWN

§ Identity

Operator
Country
UK
Launch date
2021-04-25
Launch site
VOSTO
Launch vehicle
Mass (kg)
RCS (m²)

Purposes: comms

External: N2YO · Heavens-Above · Gunter

§ Orbital elements

Epoch: 2026-09-19T17:35:07.234368Z

Period
98.77 min
Inclination
87.8936°
Eccentricity
0.0348071
Mean motion
14.57918005 rev/d
Perigee alt
453.5 km
Apogee alt
946.3 km
Semi-major
7,078.0 km
B*
1.1758e-4
RAAN
263.6365°
Arg perigee
301.3243°
Mean anomaly
55.4325°
Rev number
26,265

§ Raw data

ONEWEB-01791 48212U 21031C   26262.73272262  .00001287  00000+0  11758-3 0  99952 48212  87.8936 263.6365 0348071 301.3243  55.4325 14.57918005262655

JSON: /api/v1/satellites/48212 · /tle

For live sub-satellite position, see the globe view (requires WebGL).

§ Visibility from observer

Set your observer location to see the next 7 days of passes ≥ 10°. The values pass through the URL so the page stays shareable.

No JS? Fill the form by hand. The geolocation button needs JavaScript.